CSS (TIANHE)

Last updated on Sun Nov 09 2025 00:02:11 GMT+0000 (Coordinated Universal Time)

1 48274U 21035A 25312.51198953 .00036443 00000+0 42863-3 0 9995 2 48274 41.4659 224.5310 0005344 345.4861 14.5824 15.60680450258688
UTC large
Height (km)
Speed (km/s)
/
Latitude / Longitude
Inclination (degrees)
Orbital Period (minutes)
Azimuth
Elevation
Range (km)
Doppler Factor

Next 0 passes for location: London (51.5072 / 0.1276)

Sorry there are no passes over London.